Lapse_Rate
7.4 7.4 7.4 7.2 7.0 6.8 6.6 6.3 6.1 6.0 5.9 5.9 5.9 5.9 6.0 6.3 6.3 6.3 6.2 6.3 6.4 6.6 6.6 6.6 6.6 6.8 6.8 6.8 6.8 6.7 6.5 6.4 6.4 6.3 6.2 6.2 6.2 6.3 6.3 6.2 6.2 6.1 6.0
7.3 7.5 7.4 7.1 7.0 6.8 6.6 6.3 6.2 6.1 6.2 6.1 6.1 6.0 6.4 6.6 6.7 6.6 6.6 6.7 6.7 6.6 6.6 6.6 6.6 6.6 6.6 6.6 6.6 6.6 6.5 6.5 6.4 6.4 6.3 6.3 6.4 6.3 6.4 6.3 6.3 6.3 6.2
7.4 7.6 7.4 7.2 7.0 6.7 6.5 6.5 6.4 6.5 6.5 6.5 6.4 6.3 6.4 6.7 6.8 6.9 6.9 6.9 6.9 6.8 6.7 6.6 6.6 6.6 6.6 6.5 6.5 6.4 6.5 6.5 6.6 6.6 6.4 6.3 6.4 6.4 6.3 6.3 6.3 6.2 6.2
7.6 7.5 7.4 7.3 7.1 6.9 6.7 6.7 6.7 6.7 6.9 6.9 6.8 6.7 6.7 6.7 6.9 7.0 6.9 6.8 6.7 6.7 6.6 6.5 6.6 6.5 6.6 6.5 6.5 6.5 6.5 6.5 6.5 6.5 6.5 6.4 6.4 6.4 6.4 6.2 6.2 6.0 6.0
7.6 7.7 7.6 7.4 7.2 7.0 6.9 6.8 6.9 7.0 7.0 7.0 7.0 7.0 6.9 6.8 6.7 6.9 7.0 6.8 6.8 6.7 6.6 6.6 6.7 6.6 6.6 6.5 6.6 6.6 6.6 6.5 6.5 6.4 6.4 6.4 6.4 6.3 6.3 6.2 6.0 6.0 5.9
7.8 7.9 8.0 7.6 7.3 7.2 7.1 7.1 7.0 7.1 7.0 7.1 7.1 7.1 7.0 6.7 6.7 6.7 6.7 6.6 6.6 6.6 6.5 6.5 6.6 6.5 6.5 6.3 6.2 6.3 6.2 6.2 6.2 6.2 6.1 6.1 6.1 6.1 6.0 6.0 6.0 5.9 6.0
7.9 8.2 8.1 7.7 7.3 7.2 7.2 7.1 7.2 7.2 7.1 7.2 7.2 7.0 6.9 6.7 6.6 6.6 6.4 6.5 6.4 6.3 6.2 6.2 6.3 6.3 6.3 6.2 6.1 6.1 6.0 5.9 5.8 5.8 5.8 5.8 5.8 5.8 5.9 5.9 5.8 5.8 5.9
8.0 8.0 8.0 7.7 7.4 7.3 7.2 7.3 7.3 7.3 7.2 7.1 7.2 7.1 6.9 6.8 6.6 6.4 6.1 6.2 6.2 6.2 6.2 6.1 6.1 6.1 6.0 5.9 5.8 5.7 5.8 5.7 5.8 5.8 5.7 5.7 5.7 5.5 5.5 5.6 5.6 5.5 5.6
7.8 8.1 7.9 7.8 7.5 7.3 7.5 7.5 7.5 7.5 7.4 7.2 7.1 6.9 6.7 6.7 6.7 6.6 6.4 6.4 6.3 6.3 6.2 6.1 6.1 6.1 6.1 6.0 6.0 5.9 5.8 5.8 5.8 5.8 5.8 5.6 5.7 5.7 5.7 5.6 5.6 5.5 5.5
7.9 7.9 7.8 7.8 7.7 7.5 7.5 7.6 7.7 7.6 7.4 7.3 7.1 6.8 6.7 6.5 6.4 6.3 6.2 6.3 6.2 6.2 6.1 6.0 6.0 6.0 6.0 5.9 5.8 5.9 6.0 5.9 5.9 5.8 5.7 5.6 5.7 5.7 5.8 5.7 5.7 5.6 5.3
7.7 7.7 7.7 7.8 7.7 7.6 7.5 7.6 7.7 7.6 7.5 7.3 7.1 7.0 6.8 6.6 6.5 6.5 6.3 6.2 6.1 6.1 6.0 6.0 5.9 6.0 6.0 6.0 6.0 6.0 5.8 5.8 5.8 5.7 5.6 5.5 5.5 5.4 5.4 5.4 5.5 5.3 4.8
7.7 7.6 7.6 7.7 7.7 7.6 7.4 7.5 7.7 7.7 7.5 7.3 7.2 7.0 6.9 6.7 6.6 6.4 6.3 6.2 6.1 6.2 6.2 6.1 6.1 6.1 6.2 6.1 6.0 5.9 5.9 5.8 5.8 5.6 5.5 5.4 5.4 5.3 5.4 5.4 5.3 5.3 5.3
7.6 7.8 7.8 7.7 7.5 7.5 7.4 7.4 7.4 7.7 7.6 7.4 7.2 7.0 6.8 6.7 6.6 6.5 6.2 6.2 6.1 6.2 6.2 6.2 6.4 6.2 6.1 6.2 6.1 6.0 5.9 5.8 5.6 5.6 5.6 5.6 5.6 5.5 5.6 5.6 5.5 5.6 5.7
7.3 7.6 7.6 7.5 7.4 7.5 7.3 7.3 7.3 7.4 7.5 7.5 7.3 7.0 6.8 6.7 6.5 6.3 6.1 6.1 6.1 6.1 6.2 6.3 6.4 6.4 6.4 6.4 6.1 6.0 5.9 5.9 5.9 5.9 5.9 6.0 6.1 6.2 6.2 6.2 6.4 6.3 6.1
7.4 7.4 7.5 7.3 7.3 7.2 7.2 7.3 7.3 7.3 7.5 7.5 7.4 7.1 6.8 6.6 6.4 6.1 6.0 6.0 6.0 6.0 6.2 6.3 6.3 6.3 6.2 6.2 6.1 6.1 6.2 6.1 6.1 6.2 6.3 6.4 6.6 6.6 6.6 6.6 6.5 6.5 6.4
7.0 7.3 7.2 7.1 7.1 7.1 7.1 7.2 7.3 7.4 7.5 7.6 7.5 7.2 6.9 6.6 6.2 6.0 5.9 5.9 6.0 5.9 5.9 6.1 6.1 6.1 6.1 6.1 6.0 6.1 6.2 6.2 6.3 6.3 6.5 6.7 6.8 6.8 6.8 6.8 6.7 6.6 6.6
6.7 6.9 7.0 6.8 6.8 6.9 7.0 7.1 7.3 7.4 7.5 7.5 7.4 7.1 6.8 6.4 6.1 6.1 5.9 5.9 5.8 5.9 6.0 6.0 6.0 6.1 6.2 6.2 6.2 6.2 6.3 6.4 6.4 6.5 6.7 6.8 6.8 6.8 6.8 6.8 6.8 6.7 6.6
6.9 6.9 6.7 6.7 6.7 6.7 6.9 7.1 7.2 7.2 7.4 7.5 7.3 7.0 6.6 6.3 6.1 5.9 5.8 5.8 5.7 5.8 5.8 5.7 5.7 5.8 6.0 6.1 6.0 6.1 6.4 6.4 6.6 6.8 6.9 6.9 6.7 6.7 6.6 6.5 6.5 6.4 6.4
6.7 6.8 6.7 6.8 6.7 6.8 7.0 7.1 7.1 7.1 7.3 7.4 7.1 6.8 6.7 6.3 6.0 5.7 5.7 5.6 5.6 5.6 5.7 5.6 5.8 6.0 6.2 6.1 6.1 6.3 6.5 6.7 6.9 6.8 6.8 6.6 6.5 6.4 6.3 6.2 6.1 6.1 6.0
6.7 6.7 6.7 6.8 6.8 6.8 6.9 7.1 7.1 7.2 7.4 7.2 6.9 6.8 6.6 6.2 5.9 5.8 5.7 5.4 5.4 5.5 5.6 5.6 5.7 6.0 6.2 6.2 6.4 6.6 6.7 6.7 6.6 6.5 6.4 6.3 6.1 6.0 5.9 5.8 5.8 5.8 5.9
6.9 6.8 6.8 6.8 6.7 6.7 6.7 6.8 6.9 7.1 7.1 6.8 6.8 6.6 6.3 6.0 5.9 5.7 5.3 5.2 5.3 5.4 5.5 5.6 5.7 5.9 6.1 6.4 6.8 6.6 6.5 6.5 6.5 6.4 6.3 6.1 5.9 5.8 5.8 5.6 5.6 5.6 5.6
6.9 6.9 6.9 6.8 6.7 6.7 6.6 6.5 6.6 6.8 6.8 6.8 6.7 6.4 6.1 5.9 5.7 5.4 5.3 5.4 5.3 5.4 5.5 5.7 5.8 6.0 6.3 6.8 6.9 6.9 6.9 6.8 6.6 6.6 6.4 6.3 6.1 5.9 5.8 5.7 5.7 5.7 5.7
7.0 7.0 6.9 6.9 6.7 6.7 6.6 6.4 6.4 6.8 6.9 6.8 6.6 6.3 6.1 5.8 5.5 5.5 5.4 5.3 5.3 5.4 5.5 5.7 5.8 6.1 6.4 6.6 6.7 6.7 6.9 7.1 7.2 7.2 6.8 6.5 6.4 6.4 6.3 6.2 6.1 6.0 6.1
7.0 6.9 6.8 6.7 6.8 6.7 6.6 6.4 6.5 6.6 6.7 6.6 6.5 6.2 5.9 5.7 5.6 5.4 5.4 5.2 5.3 5.5 5.7 5.8 6.1 6.3 6.5 6.6 6.5 6.5 6.6 6.5 6.7 7.0 7.0 6.6 6.5 6.4 6.3 6.3 6.4 6.4 6.4
7.0 7.0 6.8 6.8 6.7 6.7 6.6 6.5 6.6 6.7 6.6 6.6 6.3 6.0 5.7 5.5 5.4 5.4 5.2 5.2 5.4 5.6 5.7 5.9 6.3 6.4 6.4 6.5 6.6 6.5 6.4 6.3 5.9 6.0 6.2 6.4 6.4 6.4 6.5 6.7 6.8 6.8 6.7
7.0 7.0 6.9 6.9 6.8 6.6 6.6 6.6 6.6 6.6 6.5 6.2 6.0 5.7 5.5 5.4 5.3 5.2 5.1 5.2 5.4 5.5 5.7 6.1 6.3 6.3 6.3 6.4 6.3 6.3 6.2 6.0 6.0 5.8 5.8 5.9 6.1 6.4 6.6 6.8 6.7 6.5 6.2
Wind_Speed
5 8 18 20 20 17 15 13 10 9 8 6 6 9 9 9 10 7 6 3 5 5 7 6 7 9 10 7 6 4 5 4 5 5 6 6 4 5 6 5 7 9 4
8 13 17 18 20 17 15 12 10 10 9 7 7 11 9 5 6 5 6 5 4 5 6 7 4 5 6 7 6 4 4 3 4 6 5 5 4 4 5 7 5 1 4
9 13 12 16 19 17 16 13 11 9 10 8 8 6 7 6 7 6 7 6 4 4 6 6 5 5 5 5 5 4 4 5 6 5 5 4 4 5 6 8 2 2 6
9 12 11 18 19 17 16 14 12 10 9 9 9 8 8 7 6 5 8 5 3 2 3 4 4 5 6 4 5 5 6 6 6 4 5 5 6 9 8 6 6 5 6
7 11 13 18 18 17 17 14 12 10 9 9 8 4 6 7 9 9 8 7 5 3 2 3 3 3 5 5 5 5 5 5 4 3 4 5 7 9 10 8 7 6 7
8 10 14 16 15 17 17 15 12 10 10 8 7 4 5 5 8 9 4 9 8 5 2 1 1 3 4 7 8 8 8 5 4 3 6 7 8 10 11 10 12 11 10
5 8 12 16 15 17 17 15 13 11 10 8 9 7 4 2 3 11 8 7 5 3 1 2 4 6 7 8 9 10 10 9 4 5 8 9 10 11 11 12 13 14 13
7 6 9 15 15 17 16 14 12 11 9 8 9 8 4 3 9 2 8 8 5 2 3 5 6 8 9 9 10 10 9 9 8 6 9 12 13 14 14 13 14 14 15
6 6 6 10 13 16 15 14 12 11 10 9 8 6 3 0 4 7 2 5 2 2 4 7 9 9 8 8 8 9 9 10 10 9 10 12 13 15 14 13 14 14 15
5 6 7 7 9 12 13 14 13 11 10 8 6 4 3 1 2 4 3 2 1 3 5 8 8 8 8 9 10 11 10 10 9 10 11 13 15 16 15 15 15 15 15
6 8 7 6 7 9 11 12 12 13 10 10 7 5 3 1 1 2 3 2 3 5 6 8 11 11 11 11 11 11 10 10 10 10 11 12 13 13 14 15 15 17 18
11 9 8 8 9 7 8 9 9 10 10 9 7 5 3 2 0 3 3 4 4 5 6 6 10 12 12 12 13 12 11 10 10 10 11 12 11 11 12 14 15 15 15
7 10 9 8 8 6 4 7 7 7 8 7 7 6 5 3 2 2 1 3 3 3 4 10 12 13 12 11 10 9 9 9 9 10 11 12 11 9 9 9 10 10 12
6 7 8 10 8 6 6 4 6 4 6 5 7 7 5 3 3 1 2 3 6 8 9 10 8 9 9 10 9 7 9 9 10 10 10 14 12 11 9 9 11 11 13
8 8 10 9 8 7 6 4 5 4 5 7 7 7 6 4 3 4 5 8 8 10 8 6 6 6 7 8 10 8 7 11 11 10 11 14 16 15 13 15 14 14 14
10 9 10 12 10 8 6 6 5 6 6 6 7 7 8 7 5 5 4 5 7 9 9 9 4 4 4 5 5 7 5 8 7 9 11 13 16 17 16 16 16 16 15
7 7 12 12 11 10 8 6 5 6 8 5 7 10 11 11 9 7 4 4 6 8 8 8 5 5 5 5 5 4 5 6 7 8 12 13 15 15 18 18 18 17 17
6 8 8 10 12 10 8 5 4 7 6 7 10 11 13 12 11 9 5 4 7 10 8 4 4 4 5 5 4 4 3 3 4 7 11 11 14 13 15 18 19 18 18
7 7 9 10 12 12 10 7 6 7 4 8 10 9 12 15 14 11 6 6 10 7 5 4 4 4 4 6 7 5 4 2 2 4 6 9 10 11 11 13 16 16 16
6 7 10 9 12 12 9 9 6 6 5 9 8 9 12 14 16 13 9 8 9 4 5 4 5 4 2 4 6 7 4 2 1 3 5 5 6 9 8 10 10 12 15
5 8 12 13 11 11 9 8 5 5 5 4 6 10 12 14 14 11 6 6 7 5 4 5 3 5 4 6 3 4 3 2 4 3 2 2 3 5 5 9 10 10 11
6 8 10 12 12 9 9 6 5 6 5 5 4 8 11 14 13 11 6 5 5 4 6 6 6 3 3 4 3 1 4 4 4 8 3 2 6 7 8 15 16 16 13
7 8 10 12 12 10 11 9 9 8 6 3 3 4 4 12 13 13 10 6 5 5 5 4 4 6 3 3 5 3 4 3 4 3 4 3 7 4 5 9 13 14 16
8 7 10 12 12 11 13 13 17 8 8 3 3 3 4 11 11 12 11 10 6 4 6 4 4 3 2 3 3 3 0 2 3 5 2 7 2 9 6 5 6 12 15
8 9 10 11 12 13 12 14 11 10 5 4 5 7 6 5 10 10 11 9 6 4 5 5 5 4 2 1 1 2 2 2 0 2 7 5 8 7 7 4 4 10 15
7 9 11 13 12 12 12 12 14 14 12 9 5 5 4 4 4 8 10 8 8 5 5 4 3 3 2 2 1 1 1 1 3 2 4 10 11 6 8 9 6 5 11
Wind_Direction
243 183 184 165 167 157 153 152 145 136 125 124 141 145 132 137 131 141 140 137 107 67 43 43 28 25 45 63 84 68 89 50 21 7 13 2 347 321 282 251 261 247 251
156 178 188 171 158 158 157 157 152 149 137 137 150 133 134 129 135 151 142 124 112 67 42 28 20 17 25 31 37 22 10 333 337 346 6 353 352 329 303 271 276 276 276
149 171 192 167 156 160 161 160 159 157 157 148 152 147 127 157 155 159 160 136 97 70 40 31 35 25 9 7 360 353 346 342 331 317 4 354 338 330 311 283 163 287 279
145 164 171 161 157 163 164 162 163 164 165 164 160 164 182 201 148 154 163 137 165 87 50 41 41 31 28 5 351 329 320 316 327 343 358 346 336 326 319 268 238 237 263
148 153 166 165 159 166 164 167 167 169 170 171 176 171 201 200 193 175 170 184 168 134 83 63 53 12 358 348 334 329 326 327 336 333 320 313 316 311 318 301 266 275 289
153 147 165 160 166 172 161 170 173 175 177 181 184 187 203 215 212 209 188 170 154 149 138 62 20 333 334 326 316 312 303 292 284 282 285 293 298 290 289 284 285 272 261
142 153 162 166 174 164 165 172 175 180 181 180 186 201 219 349 336 217 192 147 150 145 225 316 317 320 326 325 320 315 316 334 331 280 282 284 285 285 282 274 268 272 262
153 160 170 171 173 167 168 172 176 180 184 183 186 193 215 343 4 23 188 154 156 201 298 307 325 326 324 323 323 319 318 311 304 288 281 280 279 283 285 278 271 266 268
154 158 169 168 172 168 167 169 175 181 182 180 187 192 200 264 6 27 73 146 181 277 315 316 320 326 327 326 326 323 324 322 314 299 287 281 281 285 286 282 272 264 258
167 170 172 162 167 158 161 171 177 181 178 174 171 161 156 208 317 17 46 66 300 300 307 312 318 319 322 332 333 335 337 327 320 309 299 291 299 300 293 291 285 274 266
190 194 182 173 168 158 161 177 182 182 184 162 159 146 135 144 266 283 295 289 311 306 313 322 335 358 9 14 10 9 8 357 342 328 314 307 313 315 311 308 300 292 281
201 198 195 193 192 162 164 168 176 182 173 167 160 152 138 117 16 275 291 306 307 317 317 359 27 37 38 38 25 18 16 7 1 347 335 331 327 319 314 314 310 311 310
204 203 198 189 189 159 158 155 161 168 167 168 171 170 149 114 78 72 10 0 340 354 8 54 50 40 32 30 26 19 9 9 355 344 338 346 344 333 325 317 319 320 344
193 198 199 196 180 164 155 158 162 160 170 170 181 175 151 126 89 74 82 91 65 64 62 50 46 43 34 30 26 14 14 359 350 352 359 10 19 14 9 11 22 23 7
217 203 193 179 177 171 161 154 161 170 172 177 177 175 162 129 125 117 78 65 67 65 64 51 41 39 29 17 16 17 11 358 2 8 11 19 31 25 29 26 23 17 10
230 212 186 184 176 161 166 161 169 159 163 167 162 162 150 133 121 98 74 62 56 58 56 59 48 37 30 13 360 6 4 4 16 22 26 27 32 32 31 25 20 11 13
227 213 188 180 165 165 164 159 157 162 156 139 129 127 123 113 103 95 89 74 63 60 61 52 36 37 30 5 351 342 358 0 31 32 29 40 30 30 30 27 21 14 10
227 192 170 175 165 155 145 133 142 135 123 128 115 118 113 110 107 99 96 75 66 59 51 46 22 19 19 8 328 323 348 354 33 32 39 41 29 30 28 24 20 14 8
210 171 159 153 152 139 122 113 107 107 116 110 113 112 112 108 103 101 89 81 68 54 44 31 26 32 21 354 328 314 338 312 69 30 41 35 28 26 19 16 13 7 360
185 158 138 139 139 127 119 109 99 97 85 88 97 107 105 107 106 99 88 74 67 59 39 25 29 10 21 336 321 313 322 328 40 37 34 16 10 13 2 1 357 352 349
160 147 148 139 147 138 134 125 120 120 109 89 89 95 104 108 105 98 90 81 67 68 62 34 18 24 358 343 338 330 329 334 288 307 334 333 353 332 349 347 341 330 328
177 153 144 145 151 145 142 135 119 127 85 90 90 93 106 106 103 94 95 82 78 84 57 44 40 7 359 20 355 291 356 333 348 316 339 321 7 356 359 341 335 323 315
196 161 147 147 152 145 124 112 104 97 96 94 86 89 80 99 96 95 93 92 80 75 69 60 43 44 8 343 28 55 349 313 326 321 331 5 343 344 317 317 309 304 303
177 150 144 147 147 143 142 138 144 147 146 138 135 115 97 95 94 96 93 84 78 74 66 56 53 52 70 27 333 27 267 238 312 322 315 314 339 320 296 290 295 291 294
150 151 149 148 148 152 149 149 146 138 112 115 118 113 102 85 91 91 87 84 78 72 70 61 48 45 59 103 39 332 330 300 315 304 300 306 309 303 292 274 270 287 285
143 147 153 153 154 151 152 150 146 137 137 134 132 121 117 102 86 79 84 83 80 73 64 57 49 44 41 40 352 260 220 294 303 290 289 307 298 295 308 290 280 272 279